User: anonymous   Login
Location: Lincoln
(40.8000°N, 96.6670°W)
Time: 00:37:59
(UTC-05:00)
Language:

Tiangong - Orbit

View from above orbital plane
View from above orbital plane
View from above satellite
View from above satellite

Ground track
Ground track

The orbit data is extracted from the following two-line orbital elements,

1 48274U 21035A   23079.78306932  .00044982  00000-0  48395-3 0  9994
2 48274  41.4747 335.1186 0002082 196.6006 276.4467 15.62919597108000
Epoch (UTC): 20 March 2023 18:47:37
Eccentricity: 0.0002082
inclination: 41.4747°
perigee height: 378 km
apogee height: 380 km
right ascension of ascending node: 335.1186°
argument of perigee: 196.6006°
revolutions per day: 15.62919597
mean anomaly at epoch: 276.4467°
orbit number at epoch: 10800

The dashed part of the orbit path shows where the satellite is in the earth's shadow,  

DLR